Location: Unspecified
(0.0000°N, 0.0000°E)
Time: 02:10:28
(UTC+02:00)

Cosmos 1626 Rocket - Visible Passes

Search period start: 24 June 2017 00:00
Search period end: 04 July 2017 00:00
Orbit: 604 x 631 km, 82.5° (Epoch: 22 June)

Date Brightness Start Highest point End Pass type
(mag) Time Alt. Az. Time Alt. Az. Time Alt. Az.
24 Jun 5.7 07:18:17 10° NNE 07:22:13 31° E 07:26:08 10° SSE visible
25 Jun 3.9 07:34:33 10° N 07:38:58 72° E 07:43:23 10° S visible
27 Jun 6.6 06:32:34 10° NE 06:34:57 14° E 06:37:19 10° ESE visible
28 Jun 5.5 06:47:48 10° NNE 06:51:43 31° E 06:55:37 10° SSE visible
29 Jun 3.8 07:04:04 10° N 07:08:28 73° E 07:12:52 10° S visible
30 Jun 3.8 07:20:58 10° NNW 07:25:14 48° W 07:29:28 10° SSW visible
01 Jul 6.5 06:02:05 10° NE 06:04:26 14° E 06:06:48 10° ESE visible
02 Jul 5.4 06:17:18 10° NNE 06:21:12 31° E 06:25:06 10° SSE visible
03 Jul 3.7 06:33:34 10° N 06:37:58 73° E 06:42:20 10° S visible
